Location: Keewatin
(47.4004°N, 93.0827°W)
Time: 14:11:17
(UTC+00:00)

Envisat - Pass Details

Date: 14 December 2019
Orbit: 764 x 766 km, 98.1° (Epoch: 18 January)

Event Time Altitude Azimuth Distance (km) Brightness Sun altitude
Rises 01:46:57 0° 223° (SW) 3,224 6.8 -33.6°
Reaches altitude 10° 01:51:16 10° 259° (W) 2,306 6.2 -34.3°
Maximum altitude 01:52:38 11° 275° (W) 2,240 6.2 -34.6°
Drops below altitude 10° 01:53:59 10° 291° (WNW) 2,310 6.2 -34.8°
Sets 01:58:22 0° 326° (NNW) 3,244 6.7 -35.5°
